Wetbulb
22.32 23.32 22.79 23.21 26.14 27.00 28.33 27.64 28.16 34.15 35.37 36.53 37.24 37.90 38.36 39.07 38.63 38.84 39.35 40.03 40.36 41.14 41.63 42.10 42.76 43.41 44.27
20.75 21.45 21.47 23.68 23.89 23.66 27.45 29.61 28.55 32.48 35.06 36.02 36.44 37.28 38.05 37.29 37.31 37.88 38.10 38.64 38.98 39.21 39.81 40.49 41.23 41.58 42.36
19.07 21.36 21.14 22.37 23.44 24.71 25.25 25.66 28.82 32.33 33.82 34.54 35.81 35.88 35.85 36.22 36.41 36.75 36.94 37.09 37.33 37.66 38.24 38.87 39.40 40.11 41.14
19.40 20.12 21.38 23.06 22.47 22.15 22.27 24.38 24.59 29.18 30.79 31.66 33.35 33.99 34.21 34.61 35.14 34.86 34.90 35.34 36.35 36.91 37.49 37.96 38.51 39.34 39.95
18.72 19.59 19.99 20.43 20.20 22.63 23.00 22.82 23.85 24.16 24.64 25.34 26.02 26.88 28.44 31.85 32.18 33.15 33.74 35.06 35.89 36.66 37.32 37.85 38.16 38.66 39.33
19.26 18.88 20.01 21.00 23.22 23.30 23.41 21.39 18.65 24.84 22.99 22.96 25.66 25.09 26.54 27.61 31.85 33.36 34.33 34.89 35.47 36.14 36.55 37.30 37.55 37.69 38.04
22.31 22.74 22.76 22.91 23.48 21.69 20.83 20.32 19.69 22.89 22.96 20.99 24.40 23.50 26.16 28.64 32.28 33.26 33.71 34.36 34.68 35.38 35.70 36.14 36.38 36.45 36.67
21.47 21.25 21.69 22.34 22.07 22.00 21.18 21.09 22.27 23.26 24.00 19.52 23.61 23.06 25.84 27.67 32.28 32.66 33.08 33.66 34.23 34.55 34.59 34.76 34.85 34.94 35.21
27.76 28.49 29.16 29.84 29.28 25.89 23.24 21.56 19.84 22.56 26.46 24.14 23.57 23.35 24.50 24.91 27.04 31.54 32.60 33.23 33.14 33.17 33.28 33.34 33.45 33.73 32.09
21.76 23.44 25.24 24.40 27.80 24.56 22.52 19.83 19.47 18.73 23.13 20.93 21.57 22.27 19.76 25.30 26.57 26.66 26.31 30.34 31.11 31.57 31.95 32.26 32.37 28.79 27.75
21.06 21.49 22.13 22.36 22.97 23.79 24.22 23.07 20.45 19.96 24.43 24.02 22.49 23.62 23.58 21.17 22.95 24.42 24.55 25.01 25.26 26.32 29.85 30.61 31.06 30.44 26.26
20.44 20.87 21.57 22.44 23.36 24.74 25.16 25.01 25.23 24.12 25.66 25.49 21.05 20.23 18.46 17.33 17.33 21.71 22.99 24.11 24.55 24.41 25.19 28.16 30.12 30.81 31.32
19.59 20.31 21.95 22.77 23.62 23.46 23.82 22.90 22.31 22.58 23.78 23.03 21.24 20.79 19.94 18.31 18.14 19.47 20.02 21.92 23.85 23.58 24.17 24.42 24.46 25.13 23.89
19.22 20.90 22.27 21.49 20.23 20.35 18.89 19.06 18.06 18.42 21.89 22.46 22.05 21.82 19.86 19.91 19.52 18.56 19.94 17.87 21.56 22.42 23.24 23.83 24.61 25.19 24.89
18.25 18.36 18.13 18.31 17.87 18.64 17.85 16.84 14.48 14.56 15.87 20.04 21.93 21.61 21.10 20.06 17.30 18.70 18.71 19.08 20.83 21.10 21.56 20.80 22.50 23.69 24.33
17.16 16.23 15.09 14.75 14.54 15.20 15.67 14.36 13.61 14.86 15.47 17.09 17.75 17.37 17.78 19.17 22.89 18.03 18.81 18.68 20.22 20.96 21.45 19.79 19.94 22.52 24.11
14.40 13.78 13.59 13.21 13.29 12.03 12.65 12.95 12.54 13.70 15.00 16.59 15.91 14.71 11.46 9.70 16.46 23.61 17.46 18.62 19.32 19.00 20.07 19.73 18.89 20.91 22.91
MSLP
1031.57 1031.40 1031.19 1030.89 1030.41 1030.03 1029.70 1029.37 1029.09 1028.65 1028.18 1027.72 1027.24 1026.86 1026.48 1025.99 1025.86 1025.67 1025.34 1024.87 1024.52 1024.12 1023.71 1023.30 1022.86 1022.34 1021.85
1031.19 1031.04 1030.73 1030.36 1030.02 1029.87 1029.25 1028.77 1028.45 1028.20 1027.62 1027.13 1026.77 1026.33 1025.95 1025.69 1025.57 1025.21 1024.82 1024.44 1024.10 1023.79 1023.37 1022.94 1022.51 1022.15 1021.78
1030.53 1030.44 1030.19 1029.93 1029.48 1029.08 1028.79 1028.42 1027.92 1027.54 1027.12 1026.63 1026.04 1025.89 1025.78 1025.45 1025.17 1024.75 1024.39 1024.07 1023.72 1023.38 1022.92 1022.47 1022.12 1021.72 1021.26
1029.86 1029.62 1029.43 1029.09 1028.82 1028.61 1028.09 1027.87 1027.52 1027.14 1026.87 1026.53 1026.09 1025.71 1025.32 1024.93 1024.58 1024.30 1024.05 1023.76 1023.21 1022.80 1022.29 1021.80 1021.35 1020.91 1020.54
1029.06 1028.70 1028.43 1028.19 1027.91 1027.67 1027.47 1027.34 1027.12 1027.02 1026.62 1025.94 1025.73 1025.36 1024.89 1024.42 1024.01 1023.71 1023.41 1023.03 1022.53 1021.97 1021.49 1020.93 1020.47 1020.06 1019.68
1027.89 1027.58 1027.22 1027.11 1026.96 1027.10 1027.03 1026.92 1026.30 1026.25 1025.81 1024.91 1024.82 1024.35 1024.04 1023.85 1023.47 1022.92 1022.44 1022.01 1021.53 1021.03 1020.63 1020.11 1019.84 1019.24 1019.10
1026.78 1026.78 1026.55 1026.61 1026.63 1026.58 1026.34 1026.01 1025.28 1024.91 1024.96 1023.95 1024.04 1023.46 1023.14 1022.82 1022.46 1022.13 1021.67 1021.11 1020.60 1020.08 1019.61 1019.18 1018.88 1018.57 1018.15
1026.24 1025.91 1025.73 1025.64 1025.60 1025.37 1025.02 1024.62 1024.20 1023.73 1023.90 1023.29 1023.10 1022.58 1022.36 1021.91 1021.38 1020.97 1020.54 1020.12 1019.63 1019.14 1018.79 1018.41 1018.08 1017.74 1017.35
1024.67 1024.30 1024.12 1023.92 1023.89 1023.98 1023.66 1023.47 1022.87 1022.75 1022.96 1022.50 1022.07 1021.67 1021.31 1020.67 1020.19 1019.82 1019.42 1018.98 1018.72 1018.45 1018.15 1017.81 1017.38 1016.97 1016.42
1024.09 1023.71 1023.46 1023.24 1022.97 1022.84 1022.69 1022.51 1022.20 1021.68 1021.60 1021.54 1021.07 1020.90 1020.10 1019.14 1018.89 1018.87 1018.83 1018.45 1018.03 1017.63 1017.24 1016.83 1016.44 1015.93 1015.39
1022.74 1022.54 1022.41 1022.24 1022.06 1021.83 1021.64 1021.52 1021.25 1020.71 1020.50 1020.49 1020.06 1019.68 1019.17 1018.58 1018.21 1018.17 1018.08 1017.41 1017.15 1016.64 1016.09 1015.70 1015.34 1014.99 1014.37
1021.59 1021.30 1021.07 1020.64 1020.47 1020.45 1020.37 1020.23 1020.07 1019.83 1019.73 1019.92 1019.48 1019.28 1018.76 1018.02 1017.37 1017.21 1016.87 1016.35 1016.11 1015.39 1014.87 1014.36 1013.95 1013.56 1013.00
1020.54 1020.30 1020.08 1019.76 1019.52 1019.53 1019.49 1019.41 1019.21 1019.04 1018.88 1018.70 1018.36 1017.98 1017.77 1017.03 1016.43 1016.13 1015.64 1015.04 1014.75 1014.08 1013.49 1013.05 1012.60 1012.22 1011.79
1019.78 1019.49 1019.34 1019.28 1019.17 1019.14 1019.07 1018.83 1018.48 1017.92 1017.66 1017.46 1017.07 1016.75 1016.24 1015.93 1015.55 1014.95 1014.52 1013.80 1013.33 1012.81 1012.35 1011.55 1010.86 1010.46 1010.14
1018.91 1018.86 1018.79 1018.72 1018.63 1018.56 1018.39 1018.13 1017.76 1017.17 1016.47 1016.11 1015.80 1015.55 1015.21 1014.82 1014.27 1013.72 1013.08 1012.47 1011.93 1011.20 1010.98 1009.95 1009.07 1008.63 1008.49
1018.43 1018.53 1018.58 1018.47 1018.24 1017.99 1017.76 1017.43 1016.87 1016.18 1015.55 1015.21 1014.92 1014.43 1013.89 1013.01 1012.93 1012.20 1011.67 1010.90 1010.27 1009.75 1009.33 1008.52 1007.05 1006.76 1006.80
1018.41 1018.34 1018.24 1018.03 1017.74 1017.44 1017.11 1016.68 1015.94 1015.28 1014.59 1014.26 1013.98 1013.62 1012.66 1011.12 1010.24 1010.90 1010.18 1009.35 1008.65 1007.84 1007.31 1006.55 1005.33 1004.65 1004.89
Wind_Speed
3 4 4 6 9 9 9 9 7 20 22 21 21 21 22 19 20 21 22 21 22 23 23 23 23 23 22
8 6 7 7 7 7 9 10 9 16 23 23 24 22 23 19 23 23 23 22 22 23 23 23 22 23 24
9 5 5 4 8 9 9 6 9 16 20 23 20 20 23 23 25 24 23 22 23 23 23 23 24 24 24
9 9 8 7 5 7 9 5 6 7 11 16 21 24 28 26 24 23 22 24 24 25 25 25 25 25 25
9 10 9 9 10 8 8 6 5 3 8 10 9 9 10 18 20 23 25 25 26 27 27 27 28 26 25
11 12 13 8 7 8 6 6 9 7 11 12 8 9 9 8 20 25 27 28 28 27 28 29 28 28 26
12 9 8 6 6 8 9 10 12 10 10 12 8 11 9 11 23 26 28 28 29 29 29 28 27 28 29
14 14 13 11 11 11 14 14 13 12 11 13 10 12 10 10 24 28 29 29 28 27 28 29 30 30 30
28 28 29 30 25 12 10 10 10 8 5 9 8 11 11 12 12 26 29 26 28 29 29 30 31 32 24
14 18 22 18 27 17 10 11 10 11 9 10 10 10 12 10 8 7 8 21 28 31 32 32 32 16 13
12 11 12 12 11 12 13 11 11 12 12 12 11 11 7 6 10 10 10 13 13 17 28 31 31 27 14
10 9 9 10 10 11 13 12 11 15 11 9 8 10 12 13 14 11 11 12 12 13 13 20 29 31 32
9 9 9 8 9 8 8 6 8 11 11 15 12 13 12 13 13 12 15 12 12 13 13 13 13 12 14
9 9 6 4 5 5 7 8 9 11 13 14 16 15 12 12 13 13 13 15 13 13 13 14 14 14 15
8 7 6 5 7 7 8 9 11 12 12 10 10 13 13 15 14 14 14 14 14 15 15 16 16 15 15
4 4 6 7 8 9 9 10 12 12 12 11 10 11 11 15 23 15 15 15 15 16 16 16 18 14 14
5 6 7 8 13 9 10 11 13 13 13 11 11 11 14 18 13 23 15 14 14 14 15 16 18 16 15
Wind_Direction
262 262 270 271 290 290 290 283 276 288 295 289 292 292 294 292 304 306 303 301 305 303 304 305 302 300 297
278 267 250 261 261 270 282 279 281 283 292 284 293 287 285 306 301 299 301 299 300 301 300 297 300 302 300
279 268 252 255 272 270 265 265 281 281 292 293 295 300 298 295 297 298 298 303 301 297 295 293 293 293 293
263 266 260 252 240 267 273 251 271 284 297 295 293 295 296 292 292 294 297 295 294 294 288 287 287 287 287
260 261 258 256 249 257 258 269 262 246 277 276 277 271 269 283 287 290 290 288 288 288 288 288 287 288 290
246 248 254 256 262 262 256 268 272 253 267 267 259 263 263 265 274 282 286 289 288 287 288 286 287 288 285
271 266 275 276 256 253 256 260 267 266 261 267 261 266 264 264 275 279 282 281 285 285 285 286 289 287 289
270 273 269 267 258 256 261 264 267 260 253 264 271 270 273 264 266 277 279 281 279 283 290 290 290 291 291
274 270 266 264 263 258 254 248 255 254 240 252 263 267 266 264 263 269 273 274 283 286 287 286 286 285 285
263 268 272 273 274 274 277 270 272 276 265 261 270 267 273 254 248 249 259 273 280 282 282 281 280 279 276
263 256 252 251 251 252 250 251 263 263 267 270 270 266 261 290 275 273 272 274 272 272 276 276 276 276 275
259 256 254 248 246 246 248 250 252 264 274 267 275 276 279 279 278 276 268 266 266 267 266 267 272 273 273
273 273 266 267 255 253 254 257 261 265 267 265 262 266 261 264 271 270 274 269 265 266 267 266 265 261 266
265 267 273 260 257 252 259 264 269 271 264 262 261 257 261 262 267 272 269 271 269 265 266 264 261 255 254
258 265 267 275 277 276 274 275 273 274 272 263 259 263 259 263 267 264 269 269 266 267 265 265 261 258 256
256 268 275 277 279 279 276 271 270 268 267 266 268 272 269 262 252 266 263 264 265 266 263 263 265 257 254
282 278 276 277 288 283 276 272 269 267 266 266 264 262 269 268 271 256 267 267 269 265 261 256 261 261 255